Location: Efrizweiler
(47.6902°N, 9.4164°E)
Time: 16:22:49
(UTC+00:00)

Daily predictions for brighter satellites

Satellite Brightness Start Highest point End
(mag) Time Altitude Azimuth Time Altitude Azimuth Time Altitude Azimuth
Cosmos 2221 3.4 16:00:09 10° SSW 16:04:21 52° WNW 16:08:35 10° N
Okean O Rocket 3.4 16:02:46 10° E 16:04:41 13° ENE 16:06:37 10° NNE
USA 308 3.7 16:00:44 10° WNW 16:04:42 36° N 16:08:39 10° ENE
SL-16 R/B 3.2 16:00:21 10° N 16:04:55 24° NE 16:09:27 10° E
MOS 1 Rocket 4.1 16:00:54 10° N 16:05:43 55° WNW 16:10:13 10° SSW
CZ-2C R/B 2.8 16:01:24 10° SSE 16:06:12 70° ENE 16:10:56 10° N
Cosmos 2082 Rocket 2.5 16:02:53 10° S 16:08:18 49° ESE 16:13:44 10° NE
Sich 1 3.2 16:04:57 10° N 16:09:09 50° ENE 16:13:22 10° SSE
Cosmos 1500 Rocket 3.8 16:04:48 10° NNW 16:09:14 77° W 16:13:37 10° S
Cosmos 540 Rocket 3.5 16:04:13 10° SSW 16:09:17 70° ESE 16:14:23 10° NNE
ARGOS 4.4 16:07:04 10° E 16:10:46 19° ENE 16:14:28 10° NNE
FengYun 1-2 T 4.3 16:08:30 10° SSE 16:13:59 63° ENE 16:19:26 10° N
COSMOS 2455 2.9 16:08:52 10° SSW 16:14:49 68° ESE 16:20:51 10° NE
SMAP 3.3 16:12:13 10° SE 16:16:42 49° ENE 16:21:12 10° N
NOAA 6 4.2 16:13:13 10° SE 16:18:12 53° ENE 16:23:11 10° N
Cosmos 1933 3.3 16:17:32 10° S 16:21:35 86° E 16:25:38 10° N
Cosmos 1833 Rocket 3.0 16:16:02 10° SW 16:21:37 68° WNW 16:27:16 10° NNE
Cosmos 1805 Rocket 3.5 16:17:21 10° N 16:21:43 86° E 16:26:03 10° S
Cosmos 2278 3.7 16:16:36 10° NNW 16:22:17 63° ENE 16:27:55 10° SE
Cosmos 2333 Rocket 4.0 16:21:13 10° N 16:23:46 13° NNE 16:26:02 10° NE
Cosmos 1602 3.8 16:20:43 10° N 16:24:36 84° W 16:28:29 10° S
CZ-4B DEB 4.4 16:22:04 10° SE 16:27:23 51° ENE 16:32:41 10° N
USA 305 3.4 16:25:11 10° WNW 16:29:15 42° NNE 16:32:51 13° E
CZ-2C R/B 3.7 16:26:20 10° NE 16:30:18 22° E 16:34:16 10° SE
SL-24 R/B - RUBIN 2 4.2 16:27:13 10° NW 16:31:40 59° WSW 16:35:54 10° SSE
Cosmos 2219 Rocket 4.0 16:29:51 10° N 16:31:50 12° NNE 16:33:20 11° NE
CZ-4B R/B 3.1 16:28:50 10° S 16:32:45 70° WSW 16:36:31 10° NNW
Cosmos 1500 3.0 16:31:07 10° N 16:34:53 83° E 16:38:36 10° S
Meteor 1-14 Rocket 4.4 16:29:19 10° N 16:35:09 60° ENE 16:41:00 10° SSE
Cosmos 44 Rocket 3.3 16:31:33 10° NNW 16:36:27 60° NE 16:41:10 10° SE
Meteor 2-16 Rocket 4.5 16:33:19 10° N 16:39:22 58° ENE 16:45:24 10° SSE
COSMOS 2406 3.7 16:35:35 10° SW 16:41:16 63° WNW 16:46:58 10° NNE
Cosmos 1814 Rocket 4.0 16:37:00 10° S 16:42:09 64° ESE 16:47:15 10° NNE
Cosmos 921 Rocket 3.9 16:39:48 10° SSE 16:43:26 29° E 16:45:57 16° NE
Cosmos 1570 Rocket 4.0 16:43:51 10° S 16:49:00 64° ESE 16:54:11 10° NNE
MOS 1-B Rocket 4.4 16:45:55 10° NNE 16:51:49 50° E 16:58:33 10° S
CZ-4B R/B 3.4 16:48:22 10° SE 16:53:28 46° ENE 16:58:31 10° N
Cosmos 2298 Rocket 4.1 16:49:57 10° NNW 16:55:11 52° ENE 17:00:23 10° SE
CZ-2D R/B 3.2 16:51:58 10° SSE 16:55:44 63° ENE 16:59:31 10° N
USA 267 3.3 16:50:26 16° ENE 16:55:55 76° SE 17:02:27 10° SW
MOS 1-B 4.3 16:52:35 10° SSE 16:58:18 67° ENE 17:04:03 10° N
Cosmos 1939 Rocket 3.6 16:54:25 10° S 16:58:26 57° W 17:02:26 10° NNW
ATLAS CENTAUR R/B 3.1 16:49:32 10° WSW 16:58:40 60° NW 17:01:31 20° NE
Cosmos 1151 Rocket 2.9 16:57:07 10° S 17:01:26 81° E 17:05:50 10° NNE
USA 306 3.1 16:57:30 10° WNW 17:01:41 53° NNE 17:03:51 25° E
COSMO-SKYMED 1 3.2 16:59:10 19° NE 17:01:43 34° E 17:05:41 10° SSE
Cosmos 1633 Rocket 2.9 16:57:26 10° N 17:01:51 81° E 17:06:15 10° SSE
Cosmos 1666 2.6 16:59:52 10° N 17:03:36 83° W 17:07:18 10° S
Cosmos 1782 3.7 16:59:45 10° SSW 17:03:37 49° WNW 17:07:30 10° N
APEX 3.7 17:00:34 10° S 17:03:54 31° ESE 17:04:24 30° E
Meteor 2-6 Rocket 4.2 16:58:53 10° S 17:04:29 61° E 17:09:58 10° NNE
Landsat 5 4.5 17:05:03 24° E 17:05:03 24° E 17:08:10 10° SSE
Cosmos 2360 Rocket 3.0 17:01:04 10° NNW 17:06:03 30° NE 17:08:17 23° E
ISS -1.0 17:04:24 10° W 17:06:55 19° SW 17:09:26 10° S
PAYLOAD B 4.2 17:02:45 10° SSE 17:08:22 84° ENE 17:13:59 10° NNW
Cosmos 1900 4.2 17:03:45 10° SSW 17:08:37 82° ESE 17:11:52 21° NE
YAOGAN 1 4.2 17:11:21 17° NNE 17:11:21 17° NNE 17:12:47 10° N
Cosmos 1818 3.7 17:06:30 10° NW 17:12:00 79° SW 17:17:26 10° SSE
CZ-2C R/B 3.7 17:14:33 10° SSW 17:16:51 14° S 17:19:05 10° SE
Cosmos 2279 Rocket 4.0 17:11:18 10° S 17:17:30 86° W 17:23:45 10° N
ATLAS 5 CENTAUR R/B 2.0 17:11:55 10° NW 17:18:46 56° NNE 17:19:39 41° E
Meteor 2-15 4.4 17:13:50 10° S 17:19:51 65° E 17:25:53 10° NNE
Cosmos 2266 Rocket 4.0 17:14:36 10° N 17:20:59 64° ENE 17:27:20 10° SSE
ERBS 4.2 17:18:59 10° NW 17:20:46 17° N 17:20:46 17° N
USA 307 2.9 17:18:03 10° WNW 17:22:17 61° NNE 17:23:33 41° E
CZ-4C R/B 3.7 17:15:53 10° NW 17:23:02 58° WSW 17:31:18 10° SSE
SL-08 RB Rocket 3.9 17:20:34 10° SE 17:24:58 46° ENE 17:29:22 10° N
Lacrosse 5 rocket 1.9 17:21:29 10° WNW 17:25:20 55° SW 17:28:57 13° SSE
NOSS 3-4 (A) 4.5 17:20:50 10° NW 17:26:47 33° NNE 17:28:52 28° ENE
Cosmos 2208 Rocket 4.2 17:22:55 10° SSW 17:28:21 78° WNW 17:32:51 16° NNE
Cosmos 1933 Rocket 3.5 17:24:40 10° N 17:28:58 57° ENE 17:33:14 10° SSE
Cosmos 2322 Rocket 2.2 17:23:21 10° NNW 17:29:02 63° ENE 17:34:41 10° SE
ATLAS 2AS CENTAUR R/B 4.0 17:23:02 10° NW 17:29:04 25° NNE 17:31:18 22° NE
COSMOS 2428 4.2 17:25:39 10° N 17:28:44 19° NNE 17:28:44 19° NNE
USA 234 3.3 17:23:29 10° SE 17:30:03 79° SW 17:36:37 10° NW
Cosmos 2150 Rocket 3.9 17:25:35 10° NNW 17:30:48 88° WSW 17:36:02 10° SSE
Cosmos 1328 Rocket 3.8 17:27:07 10° SSW 17:31:32 71° W 17:35:59 10° N
Cosmos 1980 Rocket 4.2 17:27:00 10° NW 17:31:52 30° WSW 17:36:40 10° SSW
Cosmos 1470 Rocket 3.7 17:30:32 10° NNW 17:35:01 79° W 17:39:30 10° S
Cosmos 1544 2.9 17:31:30 10° N 17:35:08 88° ENE 17:38:46 10° S
Cosmos 1125 Rocket 3.5 17:31:45 10° NNW 17:37:01 85° WSW 17:42:18 10° SSE
Cosmos 1867 3.9 17:32:16 10° S 17:37:28 46° ESE 17:38:28 42° E
Cosmos 1812 4.4 17:33:58 10° SW 17:37:29 33° WNW 17:41:02 10° N
NOSS 3-3 (A) 4.4 17:32:37 10° S 17:37:44 36° ESE 17:38:22 35° ESE
NOSS 3-3 (C) 4.4 17:32:44 10° S 17:37:51 36° ESE 17:38:27 35° ESE
X-37B 2.2 17:36:01 10° SW 17:37:49 24° S 17:37:49 24° S
H-2A R/B 2.6 17:33:34 10° S 17:38:37 58° W 17:43:33 10° NNW
DEBRIS 4.2 17:36:51 10° S 17:38:35 25° SSE 17:38:35 25° SSE
Okean O Rocket 1.5 17:35:53 10° SSE 17:40:21 89° ENE 17:44:51 10° NNW
Meteor 1-10 Rocket 4.2 17:35:51 10° S 17:41:36 88° ESE 17:47:11 11° NNE
GEOS 3 Rocket 4.1 17:41:55 39° NE 17:42:12 39° NE 17:46:59 10° NNW
Meteor 1-11 Rocket 3.6 17:36:32 10° N 17:42:13 83° E 17:47:59 10° SSE
USA 32 3.9 17:38:27 10° S 17:43:35 61° E 17:46:22 27° NNE
USA 308 2.7 17:40:45 10° WNW 17:45:01 79° NNE 17:45:21 72° E
SL-16 R/B 2.3 17:43:56 10° NNW 17:49:37 74° WSW 17:55:16 10° SSE
SKYMED 2 3.6 17:47:47 30° N 17:49:54 78° WNW 17:54:14 10° SSW
ARGOS 3.2 17:45:01 10° S 17:50:26 77° WSW 17:55:52 10° NNW
Cosmos 2237 Rocket 4.3 17:48:31 10° N 17:49:04 11° N 17:49:04 11° N
Cosmos 2082 Rocket 3.7 17:47:31 10° WSW 17:52:36 33° NW 17:56:57 13° N
deb Chang Zheng 4 4.2 17:51:45 10° S 17:55:58 55° WSW 18:00:13 10° NNW
Cosmos 1241 Rocket 4.4 17:54:42 10° SSW 18:00:59 62° ESE 18:01:58 55° E
COSMOS 2455 4.3 17:55:59 10° W 18:01:16 30° NW 18:04:54 17° N
Feng Yun 1-1 Rocket 4.3 17:59:21 10° SSE 18:05:17 89° WSW 18:11:09 10° NNW
USA 305 3.2 18:05:05 10° WNW 18:08:52 63° WSW 18:08:52 63° WSW
Cosmos 2333 Rocket 3.0 18:04:04 10° NNW 18:08:05 37° NNE 18:08:05 37° NNE
Cosmos 1356 Rocket 4.3 18:05:37 10° NNW 18:09:41 48° W 18:13:47 10° S
CZ-2C R/B 3.1 18:06:50 15° N 18:10:58 55° WNW 18:16:00 10° SSW
Cosmos 2219 Rocket 3.4 18:12:02 10° NNW 18:15:04 28° N 18:15:04 28° N
Aureole 3 Rocket 3.7 18:13:15 10° SSW 18:17:52 76° W 18:24:32 10° N
Nadezhda 2 Rocket 4.4 18:18:03 10° N 18:24:24 75° ENE 18:24:24 75° ENE
USA 267 3.7 18:37:47 47° N 18:38:45 51° NNW 18:45:01 10° W
Cosmos 2360 Rocket 2.8 18:44:50 10° NW 18:50:08 54° W 18:50:08 54° W
Cosmos 2322 Rocket 4.3 19:08:12 10° NW 19:12:37 23° WSW 19:17:01 10° SSW
NOSS 3-4 (A) 4.4 19:11:33 10° NW 19:16:19 50° NW 19:16:19 50° NW
NOSS 3-4 (C) 4.4 19:11:39 10° NW 19:16:24 49° NW 19:16:24 49° NW
ATLAS 2AS CENTAUR R/B 4.0 19:14:39 10° NW 19:18:44 32° NNW 19:18:44 32° NNW
